Year,Month,Day,Hour,Minute,Value (Times are PST for temperature in C)
2023,04,20,00,00,5.30
2023,04,20,00,01,5.30
2023,04,20,00,02,5.30
2023,04,20,00,03,5.30
2023,04,20,00,04,5.30
2023,04,20,00,05,5.30
2023,04,20,00,06,5.30
2023,04,20,00,07,5.30
2023,04,20,00,08,5.30
2023,04,20,00,09,5.30
2023,04,20,00,10,5.30
2023,04,20,00,11,5.30
2023,04,20,00,12,5.30
2023,04,20,00,13,5.30
2023,04,20,00,14,5.30
2023,04,20,00,15,5.30
2023,04,20,00,16,5.30
2023,04,20,00,17,5.30
2023,04,20,00,18,5.30
2023,04,20,00,19,5.30
2023,04,20,00,20,5.30
2023,04,20,00,21,5.20
2023,04,20,00,22,5.20
2023,04,20,00,23,5.20
2023,04,20,00,24,5.20
2023,04,20,00,25,5.30
2023,04,20,00,26,5.30
2023,04,20,00,27,5.30
2023,04,20,00,28,5.30
2023,04,20,00,29,5.30
2023,04,20,00,30,5.30
2023,04,20,00,31,5.30
2023,04,20,00,32,5.30
2023,04,20,00,33,5.30
2023,04,20,00,34,5.30
2023,04,20,00,35,5.30
2023,04,20,00,36,5.30
2023,04,20,00,37,5.30
2023,04,20,00,38,5.30
2023,04,20,00,39,5.30
2023,04,20,00,40,5.30
2023,04,20,00,41,5.30
2023,04,20,00,42,5.30
2023,04,20,00,43,5.30
2023,04,20,00,44,5.30
2023,04,20,00,45,5.30
2023,04,20,00,46,5.30
2023,04,20,00,47,5.30
2023,04,20,00,48,5.30
2023,04,20,00,49,5.30
2023,04,20,00,50,5.30
2023,04,20,00,51,5.30
2023,04,20,00,52,5.30
2023,04,20,00,53,5.20
2023,04,20,00,54,5.20
2023,04,20,00,55,5.10
2023,04,20,00,56,5.10
2023,04,20,00,57,5.10
2023,04,20,00,58,5.00
2023,04,20,00,59,4.90
2023,04,20,01,00,4.90
2023,04,20,01,01,4.90
2023,04,20,01,02,4.90
2023,04,20,01,03,4.90
2023,04,20,01,04,4.90
2023,04,20,01,05,4.90
2023,04,20,01,06,4.90
2023,04,20,01,07,4.90
2023,04,20,01,08,4.90
2023,04,20,01,09,4.90
2023,04,20,01,10,5.00
2023,04,20,01,11,5.10
2023,04,20,01,12,5.10
2023,04,20,01,13,5.10
2023,04,20,01,14,5.10
2023,04,20,01,15,5.10
2023,04,20,01,16,5.10
2023,04,20,01,17,5.20
2023,04,20,01,18,5.20
2023,04,20,01,19,5.20
2023,04,20,01,20,5.20
2023,04,20,01,21,5.20
2023,04,20,01,22,5.20
2023,04,20,01,23,5.20
2023,04,20,01,24,5.20
2023,04,20,01,25,5.20
2023,04,20,01,26,5.10
2023,04,20,01,27,5.10
2023,04,20,01,28,5.10
2023,04,20,01,29,5.10
2023,04,20,01,30,5.10
2023,04,20,01,31,5.10
2023,04,20,01,32,5.10
2023,04,20,01,33,5.20
2023,04,20,01,34,5.20
2023,04,20,01,35,5.30
2023,04,20,01,36,5.30
2023,04,20,01,37,5.30
2023,04,20,01,38,5.40
2023,04,20,01,39,5.40
2023,04,20,01,40,5.50
2023,04,20,01,41,5.50
2023,04,20,01,42,5.60
2023,04,20,01,43,5.60
2023,04,20,01,44,5.70
2023,04,20,01,45,5.70
2023,04,20,01,46,5.70
2023,04,20,01,47,5.80
2023,04,20,01,48,5.80
2023,04,20,01,49,5.90
2023,04,20,01,50,5.90
2023,04,20,01,51,6.00
2023,04,20,01,52,6.00
2023,04,20,01,53,6.00
2023,04,20,01,54,6.10
2023,04,20,01,55,6.10
2023,04,20,01,56,6.10
2023,04,20,01,57,6.10
2023,04,20,01,58,6.20
2023,04,20,01,59,6.20
2023,04,20,02,00,6.20
2023,04,20,02,01,6.20
2023,04,20,02,02,6.20
2023,04,20,02,03,6.20
2023,04,20,02,04,6.20
2023,04,20,02,05,6.20
2023,04,20,02,06,6.20
2023,04,20,02,07,6.20
2023,04,20,02,08,6.20
2023,04,20,02,09,6.20
2023,04,20,02,10,6.20
2023,04,20,02,11,6.20
2023,04,20,02,12,6.20
2023,04,20,02,13,6.20
2023,04,20,02,14,6.20
2023,04,20,02,15,6.20
2023,04,20,02,16,6.20
2023,04,20,02,17,6.20
2023,04,20,02,18,6.20
2023,04,20,02,19,6.20
2023,04,20,02,20,6.20
2023,04,20,02,21,6.20
2023,04,20,02,22,6.20
2023,04,20,02,23,6.20
2023,04,20,02,24,6.20
2023,04,20,02,25,6.20
2023,04,20,02,26,6.20
2023,04,20,02,27,6.20
2023,04,20,02,28,6.20
2023,04,20,02,29,6.30
2023,04,20,02,30,6.30
2023,04,20,02,31,6.30
2023,04,20,02,32,6.30
2023,04,20,02,33,6.30
2023,04,20,02,34,6.30
2023,04,20,02,35,6.30
2023,04,20,02,36,6.30
2023,04,20,02,37,6.30
2023,04,20,02,38,6.30
2023,04,20,02,39,6.30
2023,04,20,02,40,6.30
2023,04,20,02,41,6.30
2023,04,20,02,42,6.30
2023,04,20,02,43,6.30
2023,04,20,02,44,6.30
2023,04,20,02,45,6.20
2023,04,20,02,46,6.20
2023,04,20,02,47,6.20
2023,04,20,02,48,6.20
2023,04,20,02,49,6.20
2023,04,20,02,50,6.20
2023,04,20,02,51,6.20
2023,04,20,02,52,6.20
2023,04,20,02,53,6.20
2023,04,20,02,54,6.20
2023,04,20,02,55,6.20
2023,04,20,02,56,6.20
2023,04,20,02,57,6.20
2023,04,20,02,58,6.20
2023,04,20,02,59,6.20
2023,04,20,03,00,6.20
2023,04,20,03,01,6.20
2023,04,20,03,02,6.30
2023,04,20,03,03,6.30
2023,04,20,03,04,6.20
2023,04,20,03,05,6.20
2023,04,20,03,06,6.20
2023,04,20,03,07,6.20
2023,04,20,03,08,6.20
2023,04,20,03,09,6.20
2023,04,20,03,10,6.20
2023,04,20,03,11,6.20
2023,04,20,03,12,6.20
2023,04,20,03,13,6.20
2023,04,20,03,14,6.20
2023,04,20,03,15,6.20
2023,04,20,03,16,6.20
2023,04,20,03,17,6.20
2023,04,20,03,18,6.20
2023,04,20,03,19,6.20
2023,04,20,03,20,6.20
2023,04,20,03,21,6.20
2023,04,20,03,22,6.20
2023,04,20,03,23,6.10
2023,04,20,03,24,6.10
2023,04,20,03,25,6.10
2023,04,20,03,26,6.10
2023,04,20,03,27,6.10
2023,04,20,03,28,6.10
2023,04,20,03,29,6.10
2023,04,20,03,30,6.10
2023,04,20,03,31,6.20
2023,04,20,03,32,6.20
2023,04,20,03,33,6.20
2023,04,20,03,34,6.20
2023,04,20,03,35,6.20
2023,04,20,03,36,6.10
2023,04,20,03,37,6.10
2023,04,20,03,38,6.10
2023,04,20,03,39,6.10
2023,04,20,03,40,6.00
2023,04,20,03,41,6.00
2023,04,20,03,42,6.00
2023,04,20,03,43,6.00
2023,04,20,03,44,6.00
2023,04,20,03,45,5.90
2023,04,20,03,46,5.90
2023,04,20,03,47,5.90
2023,04,20,03,48,5.90
2023,04,20,03,49,5.90
2023,04,20,03,50,5.80
2023,04,20,03,51,5.80
2023,04,20,03,52,5.80
2023,04,20,03,53,5.80
2023,04,20,03,54,5.80
2023,04,20,03,55,5.80
2023,04,20,03,56,5.80
2023,04,20,03,57,5.70
2023,04,20,03,58,5.70
2023,04,20,03,59,5.70
2023,04,20,04,00,5.70
2023,04,20,04,01,5.70
2023,04,20,04,02,5.70
2023,04,20,04,03,5.70
2023,04,20,04,04,5.70
2023,04,20,04,05,5.70
2023,04,20,04,06,5.70
2023,04,20,04,07,5.70
2023,04,20,04,08,5.70
2023,04,20,04,09,5.70
2023,04,20,04,10,5.70
2023,04,20,04,11,5.70
2023,04,20,04,12,5.70
2023,04,20,04,13,5.60
2023,04,20,04,14,5.60
2023,04,20,04,15,5.60
2023,04,20,04,16,5.60
2023,04,20,04,17,5.60
2023,04,20,04,18,5.50
2023,04,20,04,19,5.50
2023,04,20,04,20,5.50
2023,04,20,04,21,5.50
2023,04,20,04,22,5.40
2023,04,20,04,23,5.40
2023,04,20,04,24,5.40
2023,04,20,04,25,5.40
2023,04,20,04,26,5.40
2023,04,20,04,27,5.40
2023,04,20,04,28,5.40
2023,04,20,04,29,5.40
2023,04,20,04,30,5.30
2023,04,20,04,31,5.30
2023,04,20,04,32,5.30
2023,04,20,04,33,5.30
2023,04,20,04,34,5.30
2023,04,20,04,35,5.30
2023,04,20,04,36,5.30
2023,04,20,04,37,5.30
2023,04,20,04,38,5.30
2023,04,20,04,39,5.30
2023,04,20,04,40,5.30
2023,04,20,04,41,5.30
2023,04,20,04,42,5.20
2023,04,20,04,43,5.20
2023,04,20,04,44,5.20
2023,04,20,04,45,5.20
2023,04,20,04,46,5.20
2023,04,20,04,47,5.20
2023,04,20,04,48,5.10
2023,04,20,04,49,5.10
2023,04,20,04,50,5.10
2023,04,20,04,51,5.10
2023,04,20,04,52,5.10
2023,04,20,04,53,5.10
2023,04,20,04,54,5.10
2023,04,20,04,55,5.10
2023,04,20,04,56,5.10
2023,04,20,04,57,5.10
2023,04,20,04,58,5.10
2023,04,20,04,59,5.00
2023,04,20,05,00,4.90
2023,04,20,05,01,4.90
2023,04,20,05,02,4.90
2023,04,20,05,03,4.90
2023,04,20,05,04,4.90
2023,04,20,05,05,4.90
2023,04,20,05,06,4.90
2023,04,20,05,07,4.80
2023,04,20,05,08,4.80
2023,04,20,05,09,4.80
2023,04,20,05,10,4.80
2023,04,20,05,11,4.80
2023,04,20,05,12,4.80
2023,04,20,05,13,4.80
2023,04,20,05,14,4.80
2023,04,20,05,15,4.80
2023,04,20,05,16,4.80
2023,04,20,05,17,4.80
2023,04,20,05,18,4.80
2023,04,20,05,19,4.80
2023,04,20,05,20,4.80
2023,04,20,05,21,4.80
2023,04,20,05,22,4.80
2023,04,20,05,23,4.80
2023,04,20,05,24,4.80
2023,04,20,05,25,4.80
2023,04,20,05,26,4.80
2023,04,20,05,27,4.80
2023,04,20,05,28,4.80
2023,04,20,05,29,4.70
2023,04,20,05,30,4.70
2023,04,20,05,31,4.70
2023,04,20,05,32,4.80
2023,04,20,05,33,4.80
2023,04,20,05,34,4.70
2023,04,20,05,35,4.70
2023,04,20,05,36,4.70
2023,04,20,05,37,4.70
2023,04,20,05,38,4.70
2023,04,20,05,39,4.70
2023,04,20,05,40,4.60
2023,04,20,05,41,4.60
2023,04,20,05,42,4.60
2023,04,20,05,43,4.60
2023,04,20,05,44,4.60
2023,04,20,05,45,4.60
2023,04,20,05,46,4.60
2023,04,20,05,47,4.60
2023,04,20,05,48,4.60
2023,04,20,05,49,4.60
2023,04,20,05,50,4.60
2023,04,20,05,51,4.60
2023,04,20,05,52,4.60
2023,04,20,05,53,4.60
2023,04,20,05,54,4.50
2023,04,20,05,55,4.50
2023,04,20,05,56,4.50
2023,04,20,05,57,4.40
2023,04,20,05,58,4.40
2023,04,20,05,59,4.40
2023,04,20,06,00,4.40
2023,04,20,06,01,4.40
2023,04,20,06,02,4.40
2023,04,20,06,03,4.40
2023,04,20,06,04,4.40
2023,04,20,06,05,4.40
2023,04,20,06,06,4.40
2023,04,20,06,07,4.40
2023,04,20,06,08,4.40
2023,04,20,06,09,4.40
2023,04,20,06,10,4.40
2023,04,20,06,11,4.40
2023,04,20,06,12,4.40
2023,04,20,06,13,4.50
2023,04,20,06,14,4.40
2023,04,20,06,15,4.40
2023,04,20,06,16,4.40
2023,04,20,06,17,4.40
2023,04,20,06,18,4.40
2023,04,20,06,19,4.30
2023,04,20,06,20,4.30
2023,04,20,06,21,4.30
2023,04,20,06,22,4.30
2023,04,20,06,23,4.30
2023,04,20,06,24,4.30
2023,04,20,06,25,4.30
2023,04,20,06,26,4.30
2023,04,20,06,27,4.30
2023,04,20,06,28,4.30
2023,04,20,06,29,4.30
2023,04,20,06,30,4.30
2023,04,20,06,31,4.30
2023,04,20,06,32,4.30
2023,04,20,06,33,4.30
2023,04,20,06,34,4.30
2023,04,20,06,35,4.30
2023,04,20,06,36,4.30
2023,04,20,06,37,4.30
2023,04,20,06,38,4.30
2023,04,20,06,39,4.30
2023,04,20,06,40,4.30
2023,04,20,06,41,4.30
2023,04,20,06,42,4.30
2023,04,20,06,43,4.30
2023,04,20,06,44,4.30
2023,04,20,06,45,4.30
2023,04,20,06,46,4.30
2023,04,20,06,47,4.30
2023,04,20,06,48,4.30
2023,04,20,06,49,4.30
2023,04,20,06,50,4.30
2023,04,20,06,51,4.30
2023,04,20,06,52,4.30
2023,04,20,06,53,4.30
2023,04,20,06,54,4.30
2023,04,20,06,55,4.30
2023,04,20,06,56,4.30
2023,04,20,06,57,4.40
2023,04,20,06,58,4.40
2023,04,20,06,59,4.40
2023,04,20,07,00,4.40
2023,04,20,07,01,4.40
2023,04,20,07,02,4.40
2023,04,20,07,03,4.40
2023,04,20,07,04,4.50
2023,04,20,07,05,4.50
2023,04,20,07,06,4.50
2023,04,20,07,07,4.50
2023,04,20,07,08,4.50
2023,04,20,07,09,4.50
2023,04,20,07,10,4.50
2023,04,20,07,11,4.50
2023,04,20,07,12,4.50
2023,04,20,07,13,4.50
2023,04,20,07,14,4.60
2023,04,20,07,15,4.60
2023,04,20,07,16,4.60
2023,04,20,07,17,4.70
2023,04,20,07,18,4.70
2023,04,20,07,19,4.70
2023,04,20,07,20,4.70
2023,04,20,07,21,4.70
2023,04,20,07,22,4.80
2023,04,20,07,23,4.80
2023,04,20,07,24,4.80
2023,04,20,07,25,4.80
2023,04,20,07,26,4.80
2023,04,20,07,27,4.80
2023,04,20,07,28,4.80
2023,04,20,07,29,4.80
2023,04,20,07,30,4.80
2023,04,20,07,31,4.80
2023,04,20,07,32,4.90
2023,04,20,07,33,4.90
2023,04,20,07,34,4.90
2023,04,20,07,35,4.90
2023,04,20,07,36,4.90
2023,04,20,07,37,4.80
2023,04,20,07,38,4.90
2023,04,20,07,39,4.90
2023,04,20,07,40,4.90
2023,04,20,07,41,4.90
2023,04,20,07,42,4.90
2023,04,20,07,43,4.90
2023,04,20,07,44,4.90
2023,04,20,07,45,4.90
2023,04,20,07,46,4.90
2023,04,20,07,47,4.90
2023,04,20,07,48,4.90
2023,04,20,07,49,4.90
2023,04,20,07,50,4.90
2023,04,20,07,51,4.90
2023,04,20,07,52,4.90
2023,04,20,07,53,4.90
2023,04,20,07,54,4.90
2023,04,20,07,55,4.90
2023,04,20,07,56,4.90
2023,04,20,07,57,4.90
2023,04,20,07,58,5.00
2023,04,20,07,59,5.10
2023,04,20,08,00,5.10
2023,04,20,08,01,5.00
2023,04,20,08,02,4.90
2023,04,20,08,03,4.90
2023,04,20,08,04,4.90
2023,04,20,08,05,5.00
2023,04,20,08,06,5.10
2023,04,20,08,07,5.10
2023,04,20,08,08,5.10
2023,04,20,08,09,5.10
2023,04,20,08,10,5.10
2023,04,20,08,11,5.10
2023,04,20,08,12,5.10
2023,04,20,08,13,5.10
2023,04,20,08,14,5.10
2023,04,20,08,15,5.10
2023,04,20,08,16,5.10
2023,04,20,08,17,5.10
2023,04,20,08,18,5.10
2023,04,20,08,19,5.10
2023,04,20,08,20,5.10
2023,04,20,08,21,5.20
2023,04,20,08,22,5.20
2023,04,20,08,23,5.20
2023,04,20,08,24,5.30
2023,04,20,08,25,5.30
2023,04,20,08,26,5.30
2023,04,20,08,27,5.30
2023,04,20,08,28,5.30
2023,04,20,08,29,5.40
2023,04,20,08,30,5.40
2023,04,20,08,31,5.40
2023,04,20,08,32,5.40
2023,04,20,08,33,5.50
2023,04,20,08,34,5.50
2023,04,20,08,35,5.50
2023,04,20,08,36,5.50
2023,04,20,08,37,5.50
2023,04,20,08,38,5.60
2023,04,20,08,39,5.60
2023,04,20,08,40,5.60
2023,04,20,08,41,5.60
2023,04,20,08,42,5.70
2023,04,20,08,43,5.70
2023,04,20,08,44,5.70
2023,04,20,08,45,5.70
2023,04,20,08,46,5.70
2023,04,20,08,47,5.80
2023,04,20,08,48,5.80
2023,04,20,08,49,5.80
2023,04,20,08,50,5.80
2023,04,20,08,51,5.90
2023,04,20,08,52,5.90
2023,04,20,08,53,5.90
2023,04,20,08,54,6.00
2023,04,20,08,55,6.00
2023,04,20,08,56,6.00
2023,04,20,08,57,6.00
2023,04,20,08,58,6.00
2023,04,20,08,59,6.00
2023,04,20,09,00,6.00
2023,04,20,09,01,6.00
2023,04,20,09,02,6.00
2023,04,20,09,03,6.10
2023,04,20,09,04,6.00
2023,04,20,09,05,6.00
2023,04,20,09,06,6.10
2023,04,20,09,07,6.10
2023,04,20,09,08,6.10
2023,04,20,09,09,6.10
2023,04,20,09,10,6.10
2023,04,20,09,11,6.20
2023,04,20,09,12,6.20
2023,04,20,09,13,6.20
2023,04,20,09,14,6.20
2023,04,20,09,15,6.20
2023,04,20,09,16,6.20
2023,04,20,09,17,6.30
2023,04,20,09,18,6.30
2023,04,20,09,19,6.30
2023,04,20,09,20,6.30
2023,04,20,09,21,6.40
2023,04,20,09,22,6.40
2023,04,20,09,23,6.40
2023,04,20,09,24,6.40
2023,04,20,09,25,6.40
2023,04,20,09,26,6.30
2023,04,20,09,27,6.30
2023,04,20,09,28,6.40
2023,04,20,09,29,6.40
2023,04,20,09,30,6.40
2023,04,20,09,31,6.40
2023,04,20,09,32,6.40
2023,04,20,09,33,6.50
2023,04,20,09,34,6.40
2023,04,20,09,35,6.40
2023,04,20,09,36,6.40
2023,04,20,09,37,6.50
2023,04,20,09,38,6.50
2023,04,20,09,39,6.60
2023,04,20,09,40,6.60
2023,04,20,09,41,6.60
2023,04,20,09,42,6.60
2023,04,20,09,43,6.60
2023,04,20,09,44,6.60
2023,04,20,09,45,6.60
2023,04,20,09,46,6.60
2023,04,20,09,47,6.60
2023,04,20,09,48,6.50
2023,04,20,09,49,6.40
2023,04,20,09,50,6.40
2023,04,20,09,51,6.40
2023,04,20,09,52,6.50
2023,04,20,09,53,6.60
2023,04,20,09,54,6.60
2023,04,20,09,55,6.50
2023,04,20,09,56,6.40
2023,04,20,09,57,6.40
2023,04,20,09,58,6.40
2023,04,20,09,59,6.40
2023,04,20,10,00,6.40
2023,04,20,10,01,6.40
2023,04,20,10,02,6.40
2023,04,20,10,03,6.40
2023,04,20,10,04,6.40
2023,04,20,10,05,6.50
2023,04,20,10,06,6.40
2023,04,20,10,07,6.40
2023,04,20,10,08,6.40
2023,04,20,10,09,6.50
2023,04,20,10,10,6.60
2023,04,20,10,11,6.60
2023,04,20,10,12,6.60
2023,04,20,10,13,6.60
2023,04,20,10,14,6.60
2023,04,20,10,15,6.60
2023,04,20,10,16,6.60
2023,04,20,10,17,6.60
2023,04,20,10,18,6.70
2023,04,20,10,19,6.70
2023,04,20,10,20,6.70
2023,04,20,10,21,6.70
2023,04,20,10,22,6.70
2023,04,20,10,23,6.70
2023,04,20,10,24,6.70
2023,04,20,10,25,6.70
2023,04,20,10,26,6.70
2023,04,20,10,27,6.70
2023,04,20,10,28,6.70
2023,04,20,10,29,6.70
2023,04,20,10,30,6.70
2023,04,20,10,31,6.60
2023,04,20,10,32,6.60
2023,04,20,10,33,6.70
2023,04,20,10,34,6.70
2023,04,20,10,35,6.70
2023,04,20,10,36,6.70
2023,04,20,10,37,6.70
2023,04,20,10,38,6.70
2023,04,20,10,39,6.70
2023,04,20,10,40,6.70
2023,04,20,10,41,6.80
2023,04,20,10,42,6.80
2023,04,20,10,43,6.80
2023,04,20,10,44,6.80
2023,04,20,10,45,6.80
2023,04,20,10,46,6.80
2023,04,20,10,47,6.80
2023,04,20,10,48,6.80
2023,04,20,10,49,6.90
2023,04,20,10,50,6.90
2023,04,20,10,51,6.80
2023,04,20,10,52,6.80
2023,04,20,10,53,6.80
2023,04,20,10,54,6.90
2023,04,20,10,55,6.90
2023,04,20,10,56,6.80
2023,04,20,10,57,6.90
2023,04,20,10,58,6.90
2023,04,20,10,59,6.90
2023,04,20,11,00,6.90
2023,04,20,11,01,6.90
2023,04,20,11,02,6.90
2023,04,20,11,03,6.90
2023,04,20,11,04,6.90
2023,04,20,11,05,6.90
2023,04,20,11,06,6.90
2023,04,20,11,07,6.90
2023,04,20,11,08,6.90
2023,04,20,11,09,6.90
2023,04,20,11,10,6.90
2023,04,20,11,11,6.90
2023,04,20,11,12,6.90
2023,04,20,11,13,6.90
2023,04,20,11,14,6.90
2023,04,20,11,15,6.90
2023,04,20,11,16,6.90
2023,04,20,11,17,6.90
2023,04,20,11,18,6.90
2023,04,20,11,19,6.90
2023,04,20,11,20,6.90
2023,04,20,11,21,6.90
2023,04,20,11,22,6.90
2023,04,20,11,23,6.90
2023,04,20,11,24,6.90
2023,04,20,11,25,6.90
2023,04,20,11,26,7.00
2023,04,20,11,27,6.90
2023,04,20,11,28,6.90
2023,04,20,11,29,6.90
2023,04,20,11,30,6.90
2023,04,20,11,31,6.90
2023,04,20,11,32,6.90
2023,04,20,11,33,7.00
2023,04,20,11,34,6.90
2023,04,20,11,35,7.00
2023,04,20,11,36,7.00
2023,04,20,11,37,7.00
2023,04,20,11,38,7.00
2023,04,20,11,39,7.10
2023,04,20,11,40,7.10
2023,04,20,11,41,7.00
2023,04,20,11,42,7.00
2023,04,20,11,43,7.00
2023,04,20,11,44,7.00
2023,04,20,11,45,7.00
2023,04,20,11,46,7.00
2023,04,20,11,47,7.00
2023,04,20,11,48,7.00
2023,04,20,11,49,7.00
2023,04,20,11,50,7.00
2023,04,20,11,51,7.00
2023,04,20,11,52,7.00
2023,04,20,11,53,7.00
2023,04,20,11,54,7.00
2023,04,20,11,55,7.00
2023,04,20,11,56,7.10
2023,04,20,11,57,7.00
2023,04,20,11,58,7.00
2023,04,20,11,59,7.10
2023,04,20,12,00,7.10
2023,04,20,12,01,7.10
2023,04,20,12,02,7.20
2023,04,20,12,03,7.20
2023,04,20,12,04,7.20
2023,04,20,12,05,7.30
2023,04,20,12,06,7.20
2023,04,20,12,07,7.20
2023,04,20,12,08,7.20
2023,04,20,12,09,7.20
2023,04,20,12,10,7.20
2023,04,20,12,11,7.30
2023,04,20,12,12,7.30
2023,04,20,12,13,7.30
2023,04,20,12,14,7.20
2023,04,20,12,15,7.20
2023,04,20,12,16,7.20
2023,04,20,12,17,7.20
2023,04,20,12,18,7.30
2023,04,20,12,19,7.30
2023,04,20,12,20,7.30
2023,04,20,12,21,7.30
2023,04,20,12,22,7.30
2023,04,20,12,23,7.30
2023,04,20,12,24,7.30
2023,04,20,12,25,7.30
2023,04,20,12,26,7.30
2023,04,20,12,27,7.30
2023,04,20,12,28,7.30
2023,04,20,12,29,7.30
2023,04,20,12,30,7.30
2023,04,20,12,31,7.30
2023,04,20,12,32,7.30
2023,04,20,12,33,7.30
2023,04,20,12,34,7.30
2023,04,20,12,35,7.30
2023,04,20,12,36,7.30
2023,04,20,12,37,7.30
2023,04,20,12,38,7.40
2023,04,20,12,39,7.40
2023,04,20,12,40,7.40
2023,04,20,12,41,7.40
2023,04,20,12,42,7.40
2023,04,20,12,43,7.40
2023,04,20,12,44,7.40
2023,04,20,12,45,7.40
2023,04,20,12,46,7.30
2023,04,20,12,47,7.30
2023,04,20,12,48,7.40
2023,04,20,12,49,7.40
2023,04,20,12,50,7.30
2023,04,20,12,51,7.30
2023,04,20,12,52,7.30
2023,04,20,12,53,7.30
2023,04,20,12,54,7.40
2023,04,20,12,55,7.40
2023,04,20,12,56,7.50
2023,04,20,12,57,7.50
2023,04,20,12,58,7.50
2023,04,20,12,59,7.50
2023,04,20,13,00,7.60
2023,04,20,13,01,7.60
2023,04,20,13,02,7.60
2023,04,20,13,03,7.60
2023,04,20,13,04,7.60
2023,04,20,13,05,7.70
2023,04,20,13,06,7.70
2023,04,20,13,07,7.80
2023,04,20,13,08,7.80
2023,04,20,13,09,7.80
2023,04,20,13,10,7.80
2023,04,20,13,11,7.80
2023,04,20,13,12,7.80
2023,04,20,13,13,7.80
2023,04,20,13,14,7.70
2023,04,20,13,15,7.70
2023,04,20,13,16,7.60
2023,04,20,13,17,7.60
2023,04,20,13,18,7.60
2023,04,20,13,19,7.60
2023,04,20,13,20,7.60
2023,04,20,13,21,7.60
2023,04,20,13,22,7.50
2023,04,20,13,23,7.40
2023,04,20,13,24,7.40
2023,04,20,13,25,7.40
2023,04,20,13,26,7.40
2023,04,20,13,27,7.30
2023,04,20,13,28,7.30
2023,04,20,13,29,7.30
2023,04,20,13,30,7.40
2023,04,20,13,31,7.50
2023,04,20,13,32,7.50
2023,04,20,13,33,7.50
2023,04,20,13,34,7.40
2023,04,20,13,35,7.40
2023,04,20,13,36,7.40
2023,04,20,13,37,7.30
2023,04,20,13,38,7.30
2023,04,20,13,39,7.20
2023,04,20,13,40,7.20
2023,04,20,13,41,7.10
2023,04,20,13,42,7.10
2023,04,20,13,43,7.20
2023,04,20,13,44,7.20
2023,04,20,13,45,7.20
2023,04,20,13,46,7.10
2023,04,20,13,47,7.10
2023,04,20,13,48,7.00
2023,04,20,13,49,7.00
2023,04,20,13,50,7.00
2023,04,20,13,51,7.00
2023,04,20,13,52,7.00
2023,04,20,13,53,7.00
2023,04,20,13,54,7.00
2023,04,20,13,55,7.00
2023,04,20,13,56,7.00
2023,04,20,13,57,7.00
2023,04,20,13,58,7.00
2023,04,20,13,59,7.00
2023,04,20,14,00,7.00
2023,04,20,14,01,6.90
2023,04,20,14,02,6.90
2023,04,20,14,03,6.90
2023,04,20,14,04,6.90
2023,04,20,14,05,6.80
2023,04,20,14,06,6.80
2023,04,20,14,07,6.80
2023,04,20,14,08,6.80
2023,04,20,14,09,6.80
2023,04,20,14,10,6.80
2023,04,20,14,11,6.80
2023,04,20,14,12,6.80
2023,04,20,14,13,6.80
2023,04,20,14,14,6.80
2023,04,20,14,15,6.70
2023,04,20,14,16,6.70
2023,04,20,14,17,6.70
2023,04,20,14,18,6.70
2023,04,20,14,19,6.70
2023,04,20,14,20,6.70
2023,04,20,14,21,6.70
2023,04,20,14,22,6.70
2023,04,20,14,23,6.70
2023,04,20,14,24,6.70
2023,04,20,14,25,6.60
2023,04,20,14,26,6.60
2023,04,20,14,27,6.60
2023,04,20,14,28,6.60
2023,04,20,14,29,6.60
2023,04,20,14,30,6.60
2023,04,20,14,31,6.60
2023,04,20,14,32,6.60
2023,04,20,14,33,6.60
2023,04,20,14,34,6.60
2023,04,20,14,35,6.60
2023,04,20,14,36,6.60
2023,04,20,14,37,6.60
2023,04,20,14,38,6.60
2023,04,20,14,39,6.60
2023,04,20,14,40,6.60
2023,04,20,14,41,6.60
2023,04,20,14,42,6.60
2023,04,20,14,43,6.60
2023,04,20,14,44,6.60
2023,04,20,14,45,6.60
2023,04,20,14,46,6.60
2023,04,20,14,47,6.60
2023,04,20,14,48,6.60
2023,04,20,14,49,6.60
2023,04,20,14,50,6.60
2023,04,20,14,51,6.60
2023,04,20,14,52,6.60
2023,04,20,14,53,6.60
2023,04,20,14,54,6.60
2023,04,20,14,55,6.60
2023,04,20,14,56,6.60
2023,04,20,14,57,6.60
2023,04,20,14,58,6.60
2023,04,20,14,59,6.40
2023,04,20,15,00,6.40
2023,04,20,15,01,6.40
2023,04,20,15,02,6.40
2023,04,20,15,03,6.40
2023,04,20,15,04,6.40
2023,04,20,15,05,6.40
2023,04,20,15,06,6.40
2023,04,20,15,07,6.40
2023,04,20,15,08,6.40
2023,04,20,15,09,6.40
2023,04,20,15,10,6.40
2023,04,20,15,11,6.40
2023,04,20,15,12,6.40
2023,04,20,15,13,6.40
2023,04,20,15,14,6.40
2023,04,20,15,15,6.40
2023,04,20,15,16,6.40
2023,04,20,15,17,6.40
2023,04,20,15,18,6.40
2023,04,20,15,19,6.40
2023,04,20,15,20,6.30
2023,04,20,15,21,6.30
2023,04,20,15,22,6.30
2023,04,20,15,23,6.30
2023,04,20,15,24,6.30
2023,04,20,15,25,6.30
2023,04,20,15,26,6.30
2023,04,20,15,27,6.30
2023,04,20,15,28,6.30
2023,04,20,15,29,6.30
2023,04,20,15,30,6.30
2023,04,20,15,31,6.30
2023,04,20,15,32,6.30
2023,04,20,15,33,6.30
2023,04,20,15,34,6.30
2023,04,20,15,35,6.30
2023,04,20,15,36,6.30
2023,04,20,15,37,6.30
2023,04,20,15,38,6.30
2023,04,20,15,39,6.20
2023,04,20,15,40,6.20
2023,04,20,15,41,6.20
2023,04,20,15,42,6.20
2023,04,20,15,43,6.20
2023,04,20,15,44,6.30
2023,04,20,15,45,6.30
2023,04,20,15,46,6.30
2023,04,20,15,47,6.30
2023,04,20,15,48,6.30
2023,04,20,15,49,6.30
2023,04,20,15,50,6.30
2023,04,20,15,51,6.30
2023,04,20,15,52,6.40
2023,04,20,15,53,6.40
2023,04,20,15,54,6.40
2023,04,20,15,55,6.40
2023,04,20,15,56,6.40
2023,04,20,15,57,6.40
2023,04,20,15,58,6.40
2023,04,20,15,59,6.40
2023,04,20,16,00,6.40
2023,04,20,16,01,6.40
2023,04,20,16,02,6.40
2023,04,20,16,03,6.30
2023,04,20,16,04,6.30
2023,04,20,16,05,6.30
2023,04,20,16,06,6.30
2023,04,20,16,07,6.30
2023,04,20,16,08,6.30
2023,04,20,16,09,6.30
2023,04,20,16,10,6.30
2023,04,20,16,11,6.30
2023,04,20,16,12,6.30
2023,04,20,16,13,6.30
2023,04,20,16,14,6.20
2023,04,20,16,15,6.20
2023,04,20,16,16,6.20
2023,04,20,16,17,6.20
2023,04,20,16,18,6.20
2023,04,20,16,19,6.20
2023,04,20,16,20,6.20
2023,04,20,16,21,6.20
2023,04,20,16,22,6.20
2023,04,20,16,23,6.20
2023,04,20,16,24,6.20
2023,04,20,16,25,6.20
2023,04,20,16,26,6.10
2023,04,20,16,27,6.10
2023,04,20,16,28,6.10
2023,04,20,16,29,6.10
2023,04,20,16,30,6.10
2023,04,20,16,31,6.10
2023,04,20,16,32,6.10
2023,04,20,16,33,6.10
2023,04,20,16,34,6.20
2023,04,20,16,35,6.20
2023,04,20,16,36,6.20
2023,04,20,16,37,6.20
2023,04,20,16,38,6.20
2023,04,20,16,39,6.20
2023,04,20,16,40,6.20
2023,04,20,16,41,6.20
2023,04,20,16,42,6.20
2023,04,20,16,43,6.20
2023,04,20,16,44,6.30
2023,04,20,16,45,6.30
2023,04,20,16,46,6.30
2023,04,20,16,47,6.30
2023,04,20,16,48,6.30
2023,04,20,16,49,6.30
2023,04,20,16,50,6.30
2023,04,20,16,51,6.30
2023,04,20,16,52,6.30
2023,04,20,16,53,6.20
2023,04,20,16,54,6.20
2023,04,20,16,55,6.20
2023,04,20,16,56,6.20
2023,04,20,16,57,6.20
2023,04,20,16,58,6.20
2023,04,20,16,59,6.20
2023,04,20,17,00,6.10
2023,04,20,17,01,6.10
2023,04,20,17,02,6.10
2023,04,20,17,03,6.10
2023,04,20,17,04,6.10
2023,04,20,17,05,6.10
2023,04,20,17,06,6.10
2023,04,20,17,07,6.10
2023,04,20,17,08,6.10
2023,04,20,17,09,6.10
2023,04,20,17,10,6.20
2023,04,20,17,11,6.20
2023,04,20,17,12,6.20
2023,04,20,17,13,6.20
2023,04,20,17,14,6.20
2023,04,20,17,15,6.20
2023,04,20,17,16,6.20
2023,04,20,17,17,6.20
2023,04,20,17,18,6.20
2023,04,20,17,19,6.20
2023,04,20,17,20,6.20
2023,04,20,17,21,6.20
2023,04,20,17,22,6.20
2023,04,20,17,23,6.20
2023,04,20,17,24,6.20
2023,04,20,17,25,6.20
2023,04,20,17,26,6.20
2023,04,20,17,27,6.20
2023,04,20,17,28,6.20
2023,04,20,17,29,6.20
2023,04,20,17,30,6.20
2023,04,20,17,31,6.20
2023,04,20,17,32,6.20
2023,04,20,17,33,6.20
2023,04,20,17,34,6.20
2023,04,20,17,35,6.20
2023,04,20,17,36,6.20
2023,04,20,17,37,6.20
2023,04,20,17,38,6.20
2023,04,20,17,39,6.20
2023,04,20,17,40,6.20
2023,04,20,17,41,6.20
2023,04,20,17,42,6.20
2023,04,20,17,43,6.20
2023,04,20,17,44,6.20
2023,04,20,17,45,6.20
2023,04,20,17,46,6.20
2023,04,20,17,47,6.20
2023,04,20,17,48,6.20
2023,04,20,17,49,6.20
2023,04,20,17,50,6.20
2023,04,20,17,51,6.20
2023,04,20,17,52,6.20
2023,04,20,17,53,6.30
2023,04,20,17,54,6.30
2023,04,20,17,55,6.30
2023,04,20,17,56,6.30
2023,04,20,17,57,6.30
2023,04,20,17,58,6.30
2023,04,20,17,59,6.30
2023,04,20,18,00,6.40
2023,04,20,18,01,6.40
2023,04,20,18,02,6.40
2023,04,20,18,03,6.40
2023,04,20,18,04,6.40
2023,04,20,18,05,6.40
2023,04,20,18,06,6.40